Header for Extended Forecast Station List Page

Search by: ID | Name | Date | Parm | Value | Avg | % Avg
Sort by: ID | Name | Date | Parm | Value | Avg | % Avg

Enter search or view all records.

Click on id for station plot
#IDNameDateParmValueAvg% Avg
0LEOI1KOOTENAI-AT LEONIA06-17-2024DISCHARGE (KAF)2059275675
1FCFM8NF FLATHEAD-NEAR COLUMBIA FALLS06-17-2024DISCHARGE (KAF)43056976
2WGCM8MF FLATHEAD-NEAR WEST GLACIER06-17-2024DISCHARGE (KAF)36852171
3CFMM8FLATHEAD-AT COLUMBIA FALLS06-17-2024DISCHARGE (KAF)1679191688
4DLGM8CLARK FORK-AT DEER LODGE06-17-2024DISCHARGE (KAF)174240
5DRMM8CLARK FORK-NR DRUMMOND06-17-2024DISCHARGE (KAF)7412260
6RCCM8ROCK CREEK-NEAR CLINTON06-17-2024DISCHARGE (KAF)7510968
7BONM8BLACKFOOT-NEAR BONNER06-17-2024DISCHARGE (KAF)13326650
8ABOM8CLARK FORK-ABOVE MISSOULA06-17-2024DISCHARGE (KAF)29453955
9BITM8BITTERROOT-NEAR MISSOULA06-17-2024DISCHARGE (KAF)29941073
10BELM8CLARK FORK-BELOW MISSOULA06-17-2024DISCHARGE (KAF)59396861
11STRM8ST. REGIS-NEAR ST. REGIS06-17-2024DISCHARGE (KAF)375172
12SRGM8CLARK FORK-AT ST REGIS06-17-2024DISCHARGE (KAF)792125363
13PRTI1PRIEST-NEAR PRIEST RIVER06-17-2024DISCHARGE (KAF)201185109
14SPOW1SPOKANE-AT SPOKANE06-17-2024DISCHARGE (KAF)38848580
15SATI1ST MARIES-NEAR SANTA06-17-2024DISCHARGE (KAF)182090
16CIBW1COLUMBIA-AT INTL BOUNDARY06-17-2024DISCHARGE (KAF)194782472179
17LAUW1KETTLE-AT LAURIER06-17-2024DISCHARGE (KAF)385371104
18TONW1OKANOGAN-NEAR TONASKET06-17-2024DISCHARGE (KAF)23653145
19PATW1METHOW-NEAR PATEROS06-17-2024DISCHARGE (KAF)16426662
20ARDW1ENTIAT-NEAR ARDENVOIR06-17-2024DISCHARGE (KAF)537373
21PESW1WENATCHEE-AT PESHASTIN06-17-2024DISCHARGE (KAF)43048389
22EASW1YAKIMA-AT EASTON06-17-2024DISCHARGE (KAF)497664
23TNAW1TEANAWAY-BELOW FORKS06-17-2024DISCHARGE (KAF)91372
24UMTW1YAKIMA-AT UMTANUM06-17-2024DISCHARGE (KAF)56367983
25CLFW1NACHES-NEAR CLIFFDEL06-17-2024DISCHARGE (KAF)8112366
26NACW1NACHES-NEAR NACHES06-17-2024DISCHARGE (KAF)16025463
27PARW1YAKIMA-NEAR PARKER06-17-2024DISCHARGE (KAF)2212717
28KIOW1YAKIMA-AT KIONA06-17-2024DISCHARGE (KAF)30138379
29CHEI1FALL RIVER-NEAR CHESTER06-17-2024DISCHARGE (KAF)7711766
30ANTI1HENRYS FORK-AT ST. ANTHONY06-17-2024DISCHARGE (KAF)17732255
31TEAI1TETON-NEAR ST. ANTHONY06-17-2024DISCHARGE (KAF)250208120
32REXI1HENRYS FORK-AT REXBURG06-17-2024DISCHARGE (KAF)26732981
33JKSW4SNAKE-NEAR JACKSON06-17-2024DISCHARGE (KAF)11561128103
34ALPW4SNAKE-NEAR ALPINE06-17-2024DISCHARGE (KAF)13671336102
35HEII1SNAKE-NEAR HEISE06-17-2024DISCHARGE (KAF)2218239393
36SIFI1SNAKE-AB EAGLE ROCK NR IDAHO FALLS06-17-2024DISCHARGE (KAF)1325147390
37SHYI1SNAKE-NEAR SHELLEY06-17-2024DISCHARGE (KAF)1174132888
38SNAI1SNAKE-AT BLACKFOOT06-17-2024DISCHARGE (KAF)60774881
39BFTI1SNAKE-NEAR BLACKFOOT06-17-2024DISCHARGE (KAF)61370887
40PIHI1PORTNEUF-AT POCATELLO06-17-2024DISCHARGE (KAF)3217188
41MILI1SNAKE-AT MILNER06-17-2024DISCHARGE (KAF)M40M
42HOTI1BRUNEAU-NEAR HOT SPRINGS06-17-2024DISCHARGE (KAF)4334125
43SWAI1SNAKE-BELOW SWAN FALLS06-17-2024DISCHARGE (KAF)1610162699
44HWRI1BIG LOST-AT HOWELL RANCH NEAR CHILLY06-17-2024DISCHARGE (KAF)606986
45HALI1BIG WOOD-AT HAILEY06-17-2024DISCHARGE (KAF)798197
46BIGI1BOISE-AT GLENWOOD BRIDGE06-17-2024DISCHARGE (KAF)13021062
47PARI1BOISE-NEAR PARMA06-17-2024DISCHARGE (KAF)14419674
48EMMI1PAYETTE-NEAR EMMETT06-17-2024DISCHARGE (KAF)40842097
49WSRI1WEISER-NEAR WEISER06-17-2024DISCHARGE (KAF)556586
50WEII1SNAKE-AT WEISER06-17-2024DISCHARGE (KAF)2490251099
51WHBI1SALMON-AT WHITEBIRD06-17-2024DISCHARGE (KAF)1609192684
52TRYO3GRANDE RONDE-TROY06-17-2024DISCHARGE (KAF)25431381
53ANAW1SNAKE-NEAR ANATONE06-17-2024DISCHARGE (KAF)4776549187
54ORFI1CLEARWATER-AT OROFINO06-17-2024DISCHARGE (KAF)79897682
55SPDI1CLEARWATER-AT SPALDING06-17-2024DISCHARGE (KAF)2430265891
56TCHW1WALLA WALLA-NEAR TOUCHET06-17-2024DISCHARGE (KAF)41132
57GIBO3UMATILLA-NEAR GIBBON06-17-2024DISCHARGE (KAF)121397
58PDTO3UMATILLA-AT PENDLETON06-17-2024DISCHARGE (KAF)101565
59MYKO3MCKAY CREEK-NEAR PILOT ROCK06-17-2024DISCHARGE (KAF)1150
60UMAO3UMATILLA-NEAR UMATILLA06-17-2024DISCHARGE (KAF)3526134
61MONO3NF JOHN DAY-AT MONUMENT06-17-2024DISCHARGE (KAF)5553104
62SERO3JOHN DAY-AT SERVICE CK06-17-2024DISCHARGE (KAF)8980110
63MODO3DESCHUTES-AT MOODY NR BIGGS06-17-2024DISCHARGE (KAF)10841087100
64PITW1KLICKITAT-NEAR PITT06-17-2024DISCHARGE (KAF)20021593
65HODO3HOOD-NEAR TUCKER BRIDGE06-17-2024DISCHARGE (KAF)9794103
66UNDW1WHITE SALMON-NEAR UNDERWOOD06-17-2024DISCHARGE (KAF)172172100
67LYDM8KOOTENAI-LIBBY DAM06-17-2024INFLOW (KAF)2370284383
68HHWM8SF FLATHEAD-HUNGRY HORSE DAM06-17-2024INFLOW (KAF)37852872
69KERM8FLATHEAD-SELI’Š KSANKA QLISPE’ DAM06-17-2024INFLOW (KAF)1845229380
70NOXM8CLARK FORK-NOXON RAPIDS DAM06-17-2024INFLOW (KAF)3080397677
71CABI1CLARK FORK-CABINET GORGE DAM06-17-2024INFLOW (KAF)3385438177
72ALFW1PEND OREILLE-ALBENI FALLS DAM06-17-2024INFLOW (KAF)3622444781
73COEI1COEUR D ALENE-COEUR D ALENE LAKE06-17-2024INFLOW (KAF)28132586
74LLKW1SPOKANE-AT LONGLAKE06-17-2024INFLOW (KAF)54063885
75GCDW1COLUMBIA-GRAND COULEE DAM06-17-2024INFLOW (KAF)204562365286
76CHJW1COLUMBIA-CHIEF JOSEPH DAM06-17-2024INFLOW (KAF)192532365681
77WELW1COLUMBIA-WELLS DAM06-17-2024INFLOW (KAF)196752465180
78CHDW1CHELAN-LAKE CHELAN DAM06-17-2024INFLOW (KAF)21342950
79RRHW1COLUMBIA-ROCKY REACH DAM06-17-2024INFLOW (KAF)198842535678
80WANW1COLUMBIA-WANAPUM DAM06-17-2024INFLOW (KAF)203852574779
81PRWW1COLUMBIA-PRIEST RAPIDS DAM06-17-2024INFLOW (KAF)203872583579
82KEDW1YAKIMA-KEECHELUS LAKE06-17-2024INFLOW (KAF)243180
83KADW1KACHESS-KACHESS DAM06-17-2024INFLOW (KAF)192771
84CLUW1CLE ELUM-CLE ELUM LAKE06-17-2024INFLOW (KAF)7811966
85BUDW1BUMPING-BUMPING LAKE DAM06-17-2024INFLOW (KAF)223367
86RILW1TIETON-RIMROCK LAKE NEAR RIMROCK06-17-2024INFLOW (KAF)779283
87IPDI1HENRYS FORK-ISLAND PARK DAM06-17-2024INFLOW (KAF)11513982
88JLKW4SNAKE-JACKSON LAKE AT DAM06-17-2024INFLOW (KAF)23926889
89PLDI1SF SNAKE-PALISADES DAM06-17-2024INFLOW (KAF)18151717106
90RIDI1WILLOW CREEK-RIRIE DAM06-17-2024INFLOW (KAF)167239
91AFRI1SNAKE-AMERICAN FALLS RESERVOIR06-17-2024INFLOW (KAF)1160124493
92MACI1BIG LOST-MACKAY RESERVOIR NEAR MACKAY06-17-2024INFLOW (KAF)6968101
93MAGI1BIG WOOD-MAGIC DAM06-17-2024INFLOW (KAF)384487
94LWRI1LITTLE WOOD-LITTLE WOOD DAM06-17-2024INFLOW (KAF)151788
95OWYO3OWYHEE-OWYHEE DAM06-17-2024INFLOW (KAF)8166123
96ARAI1SF BOISE-ANDERSON RANCH DAM06-17-2024INFLOW (KAF)8010675
97LUCI1BOISE-LUCKY PEAK DAM06-17-2024INFLOW (KAF)632627101
98WRMO3MALHEUR-WARM SPRINGS DAM06-17-2024INFLOW (KAF)3563
99BERO3MALHEUR-AGENCY VALLEY DAM06-17-2024INFLOW (KAF)81367
100BULO3BULLY CREEK-BULLY CREEK DAM06-17-2024INFLOW (KAF)MMM
101CSDI1NF PAYETTE-CASCADE DAM06-17-2024INFLOW (KAF)9088102
102DEDI1DEADWOOD-NEAR LOWMAN06-17-2024INFLOW (KAF)243275
103BRNI1SNAKE-BROWNLEE DAM06-17-2024INFLOW (KAF)26522645100
104DWRI1NF CLEARWATER-DWORSHAK DAM06-17-2024INFLOW (KAF)36751571
105LGDW1SNAKE-LOWER GRANITE DAM06-17-2024INFLOW (KAF)7206837286
106LGSW1SNAKE-LITTLE GOOSE DAM06-17-2024INFLOW (KAF)7206836086
107LMNW1SNAKE-LOWER MONUMENTAL DAM06-17-2024INFLOW (KAF)7213834986
108IHDW1SNAKE-ICE HARBOR DAM06-17-2024INFLOW (KAF)7218836186
109MCDW1COLUMBIA-MCNARY DAM06-17-2024INFLOW (KAF)280163505580
110JDAO3COLUMBIA-JOHN DAY DAM06-17-2024INFLOW (KAF)285203484382
111TDAO3COLUMBIA-THE DALLES DAM06-17-2024INFLOW (KAF)289913520982
112BONO3COLUMBIA-BONNEVILLE DAM06-17-2024INFLOW (KAF)294743629681
113HOPI1PEND OREILLE-LAKE PEND OREILLE NR HOPE06-17-2024LAKE ELEVATION (FT)MMM
114BFEI1KOOTENAI-AT BONNERS FERRY06-17-2024STAGE (FT)MMM
115SJMI1ST JOE-AT ST MARIES06-17-2024STAGE (FT)MMM